Theta_e
336 335 333 333 333 334 335 336 337 336 335 334 332 332 333 333 333 333 332 331 331 330 330 329 327 325 325 324 323 323 323 322 320 318 315 313 312 311 310 310 310 309
336 334 332 332 333 335 336 337 337 337 336 334 333 333 334 333 333 332 332 331 330 330 330 329 327 325 325 325 324 324 322 321 318 314 311 309 308 307 307 307 307 306
336 333 331 331 333 336 337 337 338 337 335 334 334 334 333 333 332 332 331 330 330 330 330 329 327 325 325 325 325 323 322 319 314 310 307 305 304 304 305 305 304 303
335 332 331 332 334 336 337 337 338 337 335 334 334 334 333 332 332 331 330 330 331 331 330 328 327 326 325 325 324 322 319 315 310 305 303 302 301 302 303 302 301 301
334 331 332 334 335 337 337 337 338 337 335 335 334 333 332 332 331 331 330 331 331 331 329 328 326 326 325 324 322 320 316 311 306 303 301 301 300 301 301 300 300 300
335 333 333 335 336 337 337 338 338 337 336 335 335 333 332 331 331 331 331 331 330 329 328 327 326 325 325 323 320 316 312 307 303 301 300 300 300 300 300 300 300 299
336 335 334 335 336 337 337 338 338 337 336 336 334 333 332 332 332 331 330 330 330 328 327 326 325 325 323 320 316 312 307 303 301 300 300 300 300 300 300 300 299 299
338 337 336 335 335 337 338 338 338 337 336 335 334 333 333 333 332 331 330 330 329 328 326 325 324 324 321 316 312 308 304 301 300 300 300 299 299 300 299 299 299 299
339 338 337 336 336 337 338 338 337 336 335 335 334 333 333 333 332 331 329 330 329 327 326 324 324 323 318 312 308 305 301 300 300 299 299 299 299 299 299 299 299 299
339 339 338 337 336 337 337 338 337 335 333 334 334 333 334 333 331 330 329 329 328 326 325 324 324 321 314 308 304 302 300 300 299 299 299 299 299 299 299 299 299 298
340 339 339 338 337 336 337 337 337 334 333 334 334 334 334 333 331 330 329 328 327 325 325 324 323 319 311 305 302 300 299 299 299 299 299 299 299 299 298 298 298 298
340 339 339 339 338 336 336 336 336 334 333 334 335 334 334 332 331 330 329 328 326 325 324 323 321 317 309 302 301 300 299 299 299 299 299 298 299 298 298 298 298 298
339 339 339 340 339 337 335 335 336 335 334 335 335 334 334 332 331 330 328 327 325 325 324 322 320 315 307 301 300 299 299 299 299 298 298 298 298 298 298 298 298 297
339 340 340 340 339 337 335 335 336 335 335 336 334 333 333 332 331 329 327 326 324 324 324 321 318 313 306 301 300 299 299 299 298 298 298 298 298 298 297 297 297 297
339 339 340 340 339 337 335 335 336 336 335 335 334 332 333 332 330 328 326 325 325 324 324 321 316 310 305 301 300 300 299 298 298 298 298 298 298 298 298 298 297 297
339 339 340 340 339 338 336 334 335 336 336 335 334 332 331 330 329 327 326 325 325 325 324 321 315 308 303 301 300 300 299 298 299 298 299 299 298 298 298 298 297 297
339 339 340 340 339 339 337 335 335 336 336 336 334 333 331 330 328 327 326 325 325 325 324 323 317 309 303 301 300 299 299 299 299 299 299 299 299 299 299 298 297 297
339 339 339 340 339 339 337 335 335 336 336 336 335 333 331 330 328 327 326 326 325 325 325 324 319 310 304 302 300 299 299 299 299 300 299 299 300 300 299 299 298 297
339 339 339 339 339 338 337 335 336 336 336 335 334 332 331 330 328 327 326 326 326 325 325 324 320 313 306 302 301 300 300 300 300 300 299 300 302 301 300 300 300 298
339 339 339 339 338 337 337 335 335 336 336 335 334 332 331 330 329 327 327 326 326 325 325 324 321 315 308 304 302 301 301 300 300 299 299 302 303 302 301 301 300 298
339 339 339 338 338 337 336 336 336 336 336 335 334 333 331 331 329 328 327 327 326 325 324 324 322 317 311 306 304 303 302 301 300 299 301 303 303 302 302 301 299 298
338 338 338 338 337 337 337 336 336 336 335 335 334 333 332 331 330 329 328 327 326 325 324 324 322 318 312 308 306 304 303 301 300 301 303 304 303 302 302 301 299 297
337 337 337 338 337 337 336 336 335 335 334 334 333 332 332 331 330 329 328 327 327 326 325 324 323 319 314 310 308 306 304 302 301 302 304 303 302 301 301 300 298 298
337 336 337 337 337 337 336 335 334 334 334 334 333 333 333 331 330 329 328 327 327 327 325 324 323 320 316 313 310 307 305 303 303 304 304 303 302 301 300 299 298 299
337 336 337 337 337 337 336 336 335 334 334 333 333 333 332 331 330 329 328 328 327 326 324 323 322 320 317 314 311 308 307 306 305 305 304 303 301 300 300 299 298 299
337 336 336 337 337 336 335 336 336 334 332 331 331 332 331 331 329 329 329 328 327 326 324 322 320 319 318 316 312 310 308 307 307 306 304 302 301 300 300 299 299 298
Wind_Speed
41 40 39 39 37 34 32 31 29 29 28 27 28 27 26 27 27 25 23 21 20 19 17 17 16 17 18 19 18 18 18 18 19 18 18 16 16 15 15 15 15 14
41 40 40 39 37 33 32 31 30 30 28 26 26 27 26 27 27 26 23 21 20 19 18 17 16 17 18 18 18 18 18 18 18 18 16 15 15 15 15 14 13 12
41 41 41 40 37 33 31 31 31 30 28 26 26 27 26 27 27 26 24 22 21 20 18 17 17 18 18 18 17 17 18 18 17 16 15 14 14 14 14 13 11 10
42 42 42 39 36 33 31 30 32 32 28 26 26 26 26 27 27 26 24 23 22 20 19 18 18 19 19 18 18 17 18 17 16 15 14 14 13 13 12 10 10 10
41 42 41 38 35 33 31 31 33 33 29 26 27 26 26 27 26 26 24 23 22 21 19 18 18 19 19 19 18 17 17 17 15 14 13 13 12 11 10 10 10 10
41 42 40 37 35 33 32 33 33 32 29 27 27 27 26 26 25 24 24 23 22 20 19 19 19 19 19 18 17 17 17 16 15 14 13 12 11 11 10 10 10 11
41 41 39 37 35 33 32 33 33 32 30 28 28 27 26 25 25 24 24 23 20 18 18 18 19 19 19 18 17 17 16 16 15 13 13 12 11 11 11 11 11 11
40 39 37 36 35 34 34 34 34 32 31 30 29 28 26 25 25 24 24 22 19 18 18 19 19 19 18 17 17 17 17 16 15 13 13 12 12 12 12 12 12 11
40 38 36 35 34 35 35 35 34 32 31 31 30 28 26 26 25 25 24 21 19 19 19 20 19 18 17 16 17 17 16 15 14 13 12 12 12 12 12 12 12 11
40 38 36 35 34 35 36 35 34 32 31 31 30 28 27 26 26 25 24 22 20 20 20 20 18 17 16 17 17 16 15 15 14 13 12 12 12 12 12 12 12 11
42 39 37 37 35 34 35 35 33 32 32 32 31 28 27 27 26 25 24 22 21 20 19 19 17 16 17 18 17 16 15 14 14 13 13 12 12 13 12 12 12 12
43 40 39 39 36 33 32 34 34 33 33 34 32 28 27 28 27 25 24 22 20 19 18 16 15 16 18 19 17 16 15 15 15 14 13 13 14 14 13 13 13 13
44 42 41 40 37 32 30 33 34 33 35 35 31 28 28 28 27 25 23 21 19 17 15 15 15 16 19 19 18 16 16 16 16 15 14 14 15 15 14 14 14 13
44 42 41 40 38 33 30 32 34 34 36 34 30 29 29 27 26 24 22 21 18 16 15 15 15 17 20 20 18 17 17 16 16 15 15 15 16 16 15 15 15 14
44 42 41 40 39 34 30 32 35 37 37 33 29 29 29 27 25 24 22 20 17 15 15 15 15 18 20 20 18 17 17 17 16 16 16 16 16 16 16 16 15 14
44 42 42 42 41 36 33 33 35 38 38 33 30 30 29 27 26 25 23 20 17 16 15 15 16 18 20 19 17 17 17 17 16 16 16 16 15 15 16 16 15 14
44 43 42 42 41 39 36 34 35 39 39 33 31 31 29 27 27 27 24 20 18 18 16 15 16 18 20 19 18 17 17 16 16 17 16 16 15 15 16 16 15 15
44 44 43 43 42 41 38 33 35 42 40 34 31 31 30 29 29 28 24 20 19 19 17 15 15 17 19 19 18 18 17 16 16 16 16 16 15 15 16 16 15 15
45 45 45 44 43 41 36 31 35 42 40 34 32 32 32 31 30 28 24 21 20 20 18 16 15 16 19 19 18 18 17 17 16 16 16 15 14 15 16 16 14 13
45 45 45 44 41 39 35 33 36 40 40 37 33 32 34 33 30 28 26 23 21 19 19 18 16 16 18 18 17 17 17 17 17 17 17 16 15 14 15 15 14 13
45 44 44 43 40 37 36 37 39 41 42 40 35 33 35 34 30 29 28 25 22 19 19 19 17 16 17 17 17 17 17 18 18 17 16 16 15 15 16 15 14 13
44 43 44 43 40 39 39 39 41 45 47 43 35 33 36 36 32 31 29 26 22 21 20 20 18 17 16 16 16 16 17 19 19 17 16 16 16 16 17 16 15 14
43 42 44 44 42 41 40 39 43 47 47 41 36 36 39 38 34 33 31 27 24 21 20 20 19 18 17 16 15 16 18 20 19 17 16 16 17 17 18 17 15 15
42 41 43 44 42 41 40 39 40 43 43 41 39 39 40 39 36 34 31 29 26 22 21 21 20 18 17 17 16 18 19 19 18 17 17 17 18 18 18 17 16 15
40 40 43 45 42 39 40 41 42 43 45 46 42 39 39 39 37 34 31 31 29 25 22 22 21 18 17 17 18 18 19 19 18 17 17 19 20 19 19 18 17 17
40 39 44 47 42 37 39 45 48 48 48 46 41 38 38 38 35 33 32 33 31 26 23 23 22 20 18 18 18 19 20 20 20 19 18 19 20 20 19 19 19 18
Wind_Direction
227 228 229 227 226 227 228 228 230 235 240 243 241 240 242 244 245 247 250 254 258 262 266 266 260 256 254 251 250 252 255 258 257 253 249 247 247 248 252 255 258 261
226 227 227 226 225 226 227 229 233 236 240 243 241 240 242 245 246 248 251 254 258 261 265 265 260 257 256 255 254 254 255 256 253 248 245 245 247 249 253 255 257 259
225 225 226 225 224 225 227 232 236 236 238 240 238 239 243 245 245 247 250 253 256 259 264 264 259 258 259 260 261 256 252 250 245 242 241 242 245 248 250 253 252 248
225 225 225 224 225 226 228 233 235 233 235 236 236 239 244 245 245 246 248 251 253 257 262 262 259 258 260 263 261 254 246 240 234 233 236 238 241 242 241 242 239 235
225 225 224 223 224 225 228 233 234 234 235 235 234 239 244 244 244 244 246 249 252 257 261 261 260 259 259 261 258 248 239 231 228 228 230 232 234 234 230 228 230 231
225 225 223 223 224 226 228 233 236 236 238 237 236 240 242 242 242 242 244 248 252 258 260 260 260 259 259 259 251 239 231 225 225 226 226 226 227 227 225 224 227 229
224 224 223 222 224 227 229 233 236 238 239 239 238 240 240 240 241 240 243 248 253 258 260 259 258 258 258 254 240 228 223 221 222 223 223 223 221 222 224 225 226 228
223 223 223 223 224 227 229 232 236 238 238 237 236 238 239 240 240 240 243 248 254 258 259 256 255 254 252 243 230 222 220 220 220 219 220 220 219 221 225 227 226 226
222 222 222 222 224 228 231 232 235 237 236 235 234 236 239 240 240 240 243 249 253 256 256 254 253 252 245 233 223 219 220 221 220 218 218 220 222 224 226 228 228 226
221 221 221 221 223 227 231 232 233 235 234 232 233 236 239 239 239 239 241 246 249 251 253 252 252 251 240 227 220 218 220 222 221 220 219 220 223 226 228 230 229 229
219 220 221 221 223 228 231 231 232 232 232 232 232 234 238 238 237 237 238 241 245 248 251 252 254 250 236 225 219 218 219 221 221 221 221 220 222 224 227 229 230 231
219 221 222 221 225 229 230 230 230 229 231 231 230 233 236 236 235 235 237 239 242 247 251 254 255 246 232 224 221 218 217 217 217 219 220 221 222 222 223 226 229 231
219 222 222 221 225 228 230 230 227 227 230 229 227 231 235 234 232 233 235 237 241 247 253 257 253 239 227 222 220 218 217 216 215 216 216 219 221 221 222 225 228 230
220 221 221 222 224 225 229 229 226 227 229 226 225 231 234 233 231 230 232 234 239 246 251 254 248 233 224 221 219 217 217 217 216 215 215 218 220 219 221 226 227 227
220 220 222 223 221 222 228 228 226 227 225 222 227 231 232 232 230 228 229 232 237 243 248 249 242 231 223 221 220 217 216 216 215 214 216 219 220 221 223 226 227 225
219 220 222 221 219 222 227 226 226 226 221 221 228 228 229 230 227 224 225 229 234 239 245 247 240 231 225 222 221 219 218 217 215 215 218 219 221 225 229 229 225 222
218 219 220 220 219 223 223 221 224 224 220 223 226 224 227 230 224 221 222 224 232 238 243 247 242 232 226 221 219 219 219 218 216 217 219 218 222 230 233 232 227 222
218 218 219 219 221 222 220 220 223 221 218 222 223 222 228 229 223 220 219 222 232 236 240 244 241 233 227 221 218 217 217 216 217 221 220 219 227 233 233 233 231 226
217 218 217 218 218 218 218 221 224 220 218 221 222 224 229 230 223 218 218 223 232 237 241 243 239 231 226 221 217 216 214 213 216 219 220 227 239 238 232 233 235 231
214 214 215 215 216 217 218 221 224 223 223 222 222 225 229 227 221 216 217 222 229 237 243 242 238 231 224 220 216 214 212 211 211 212 220 237 245 236 233 238 238 232
212 212 214 217 218 219 220 221 223 225 225 221 220 227 230 226 219 215 216 220 226 235 241 241 239 232 223 219 215 212 212 211 208 212 226 239 237 231 236 240 235 229
214 216 217 218 219 218 219 221 224 225 221 217 218 226 229 226 220 216 215 217 223 232 236 237 237 230 222 219 215 213 213 210 209 219 232 234 228 228 234 234 229 225
216 216 215 214 215 217 219 223 226 223 218 215 219 224 225 223 219 215 214 216 222 231 233 233 234 229 223 218 214 214 213 210 215 227 233 229 226 228 232 231 227 219
216 216 215 214 214 218 222 226 227 224 222 223 225 225 225 223 219 213 213 217 222 229 231 232 233 230 224 220 217 216 214 213 222 234 232 226 225 227 229 230 226 216
216 217 216 214 216 220 225 228 227 226 225 224 222 222 224 224 219 213 213 219 222 225 229 232 232 229 227 225 222 219 219 219 227 236 233 227 226 226 227 230 228 220
217 217 213 212 215 222 229 230 228 224 219 217 217 220 224 225 222 216 217 221 220 221 227 230 230 230 229 229 227 224 224 225 229 237 237 231 230 228 227 230 231 226